timestamp,wind_dir_avg,wind_spd_max_dir,wind_spd_avg,wind_spd_gust,battery_voltage,lat,long
2019-02-27 00:00:00+00:00,286.0,282.0,13.39,15.85,,47.59359,-54.27349
2019-02-27 00:10:00+00:00,282.0,288.0,13.26,15.47,,47.59359,-54.27349
2019-02-27 00:20:00+00:00,281.0,282.0,12.4,15.62,,47.59359,-54.27349
2019-02-27 00:30:00+00:00,282.0,279.0,12.79,15.16,,47.59359,-54.27349
2019-02-27 00:40:00+00:00,300.0,297.0,9.66,14.19,,47.59359,-54.27349
2019-02-27 00:50:00+00:00,287.0,276.0,8.44,13.3,,47.59359,-54.27349
2019-02-27 01:00:00+00:00,290.0,287.0,10.04,14.06,,47.59359,-54.27349
2019-02-27 01:10:00+00:00,295.0,298.0,8.93,15.1,,47.59359,-54.27349
2019-02-27 01:20:00+00:00,298.0,300.0,12.23,16.0,,47.59359,-54.27349
2019-02-27 01:30:00+00:00,295.0,295.0,14.31,16.44,,47.59359,-54.27349
2019-02-27 01:40:00+00:00,290.0,301.0,12.3,15.98,,47.59359,-54.27349
2019-02-27 01:50:00+00:00,287.0,293.0,15.26,16.78,,47.59359,-54.27349
2019-02-27 02:00:00+00:00,290.0,284.0,9.94,14.93,,47.59359,-54.27349
2019-02-27 02:10:00+00:00,281.0,280.0,13.13,18.41,,47.59359,-54.27349
2019-02-27 02:20:00+00:00,285.0,283.0,12.16,14.97,,47.59359,-54.27349
2019-02-27 02:30:00+00:00,287.0,287.0,14.21,16.61,,47.59359,-54.27349
2019-02-27 02:40:00+00:00,291.0,291.0,11.91,15.4,,47.59359,-54.27349
2019-02-27 02:50:00+00:00,281.0,273.0,9.14,13.99,,47.59359,-54.27349
2019-02-27 03:00:00+00:00,277.0,276.0,11.54,14.37,,47.59359,-54.27349
2019-02-27 03:10:00+00:00,293.0,285.0,9.19,13.45,,47.59359,-54.27349
2019-02-27 03:20:00+00:00,297.0,303.0,10.29,12.98,,47.59359,-54.27349
2019-02-27 03:30:00+00:00,290.0,290.0,11.93,14.44,,47.59359,-54.27349
2019-02-27 03:40:00+00:00,295.0,293.0,10.73,13.55,,47.59359,-54.27349
2019-02-27 03:50:00+00:00,307.0,318.0,9.2,11.45,,47.59359,-54.27349
2019-02-27 04:00:00+00:00,310.0,312.0,8.4,10.38,,47.59359,-54.27349
2019-02-27 04:10:00+00:00,296.0,299.0,10.74,13.47,,47.59359,-54.27349
2019-02-27 04:20:00+00:00,297.0,291.0,9.7,11.86,,47.59359,-54.27349
2019-02-27 04:30:00+00:00,291.0,287.0,9.8,12.82,,47.59359,-54.27349
2019-02-27 04:40:00+00:00,300.0,309.0,10.84,13.36,,47.59359,-54.27349
2019-02-27 04:50:00+00:00,282.0,287.0,10.36,13.21,,47.59359,-54.27349
2019-02-27 05:00:00+00:00,287.0,287.0,9.85,13.74,,47.59359,-54.27349
2019-02-27 05:10:00+00:00,294.0,293.0,8.07,12.83,,47.59359,-54.27349
2019-02-27 05:20:00+00:00,286.0,300.0,6.26,9.88,,47.59359,-54.27349
2019-02-27 05:30:00+00:00,277.0,273.0,11.89,13.67,,47.59359,-54.27349
2019-02-27 05:40:00+00:00,280.0,278.0,6.85,9.11,,47.59359,-54.27349
2019-02-27 05:50:00+00:00,274.0,269.0,10.38,14.05,,47.59359,-54.27349
2019-02-27 06:00:00+00:00,263.0,270.0,11.9,14.01,,47.59359,-54.27349
2019-02-27 06:10:00+00:00,271.0,273.0,10.48,15.61,,47.59359,-54.27349
2019-02-27 06:20:00+00:00,282.0,281.0,10.29,13.13,,47.59359,-54.27349
2019-02-27 06:30:00+00:00,274.0,262.0,10.29,13.03,,47.59359,-54.27349
2019-02-27 06:40:00+00:00,275.0,267.0,8.69,11.45,,47.59359,-54.27349
2019-02-27 06:50:00+00:00,275.0,277.0,8.04,11.11,,47.59359,-54.27349
2019-02-27 07:00:00+00:00,271.0,264.0,9.73,12.8,,47.59359,-54.27349
2019-02-27 07:10:00+00:00,274.0,277.0,6.39,8.81,,47.59359,-54.27349
2019-02-27 07:20:00+00:00,279.0,275.0,9.56,11.4,,47.59359,-54.27349
2019-02-27 07:30:00+00:00,257.0,256.0,7.87,12.11,,47.59359,-54.27349
2019-02-27 07:40:00+00:00,272.0,259.0,10.18,12.98,,47.59359,-54.27349
2019-02-27 07:50:00+00:00,273.0,278.0,7.09,11.8,,47.59359,-54.27349
2019-02-27 08:00:00+00:00,261.0,258.0,10.1,13.21,,47.59359,-54.27349
2019-02-27 08:10:00+00:00,287.0,293.0,7.24,9.41,,47.59359,-54.27349
2019-02-27 08:20:00+00:00,287.0,289.0,7.76,9.54,,47.59359,-54.27349
2019-02-27 08:30:00+00:00,289.0,299.0,7.93,10.76,,47.59359,-54.27349
2019-02-27 08:40:00+00:00,284.0,273.0,10.57,13.99,,47.59359,-54.27349
2019-02-27 08:50:00+00:00,280.0,273.0,10.0,12.08,,47.59359,-54.27349
2019-02-27 09:00:00+00:00,289.0,299.0,8.32,9.61,,47.59359,-54.27349
2019-02-27 09:10:00+00:00,277.0,275.0,8.43,11.74,,47.59359,-54.27349
2019-02-27 09:20:00+00:00,269.0,263.0,10.74,14.02,,47.59359,-54.27349
2019-02-27 09:30:00+00:00,288.0,299.0,8.01,9.3,,47.59359,-54.27349
2019-02-27 09:40:00+00:00,281.0,290.0,9.98,13.15,,47.59359,-54.27349
2019-02-27 09:50:00+00:00,290.0,290.0,9.19,12.67,,47.59359,-54.27349
2019-02-27 10:00:00+00:00,283.0,278.0,8.0,11.39,,47.59359,-54.27349
2019-02-27 10:10:00+00:00,292.0,298.0,7.81,10.81,,47.59359,-54.27349
2019-02-27 10:20:00+00:00,287.0,281.0,7.13,8.99,,47.59359,-54.27349
2019-02-27 10:30:00+00:00,286.0,293.0,12.32,15.18,,47.59359,-54.27349
2019-02-27 10:40:00+00:00,282.0,294.0,11.18,14.26,,47.59359,-54.27349
2019-02-27 10:50:00+00:00,283.0,282.0,12.74,15.19,,47.59359,-54.27349
2019-02-27 11:00:00+00:00,279.0,281.0,10.17,13.68,,47.59359,-54.27349
2019-02-27 11:10:00+00:00,277.0,277.0,12.96,14.94,,47.59359,-54.27349
2019-02-27 11:20:00+00:00,277.0,278.0,10.87,15.12,,47.59359,-54.27349
2019-02-27 11:30:00+00:00,275.0,271.0,9.4,13.72,,47.59359,-54.27349
2019-02-27 11:40:00+00:00,278.0,272.0,9.76,13.77,,47.59359,-54.27349
2019-02-27 11:50:00+00:00,288.0,288.0,9.9,14.51,,47.59359,-54.27349
2019-02-27 12:00:00+00:00,276.0,274.0,10.72,17.33,,47.59359,-54.27349
2019-02-27 12:10:00+00:00,277.0,273.0,11.39,13.0,,47.59359,-54.27349
2019-02-27 12:20:00+00:00,275.0,275.0,10.45,15.19,,47.59359,-54.27349
2019-02-27 12:30:00+00:00,276.0,282.0,10.45,12.27,,47.59359,-54.27349
2019-02-27 12:40:00+00:00,272.0,275.0,12.21,13.76,,47.59359,-54.27349
2019-02-27 12:50:00+00:00,264.0,259.0,11.89,13.97,,47.59359,-54.27349
2019-02-27 13:00:00+00:00,270.0,278.0,10.92,12.61,,47.59359,-54.27349
2019-02-27 13:10:00+00:00,261.0,264.0,8.26,9.2,,47.59359,-54.27349
2019-02-27 13:20:00+00:00,280.0,274.0,10.96,13.12,,47.59359,-54.27349
2019-02-27 13:30:00+00:00,287.0,286.0,11.08,13.03,,47.59359,-54.27349
2019-02-27 13:40:00+00:00,292.0,296.0,10.11,12.01,,47.59359,-54.27349
2019-02-27 13:50:00+00:00,281.0,285.0,11.21,14.24,,47.59359,-54.27349
2019-02-27 14:00:00+00:00,276.0,276.0,8.8,9.79,,47.59359,-54.27349
2019-02-27 14:10:00+00:00,278.0,284.0,9.58,11.74,,47.59359,-54.27349
2019-02-27 14:20:00+00:00,275.0,273.0,9.25,10.33,,47.59359,-54.27349
2019-02-27 14:30:00+00:00,276.0,277.0,11.06,13.03,,47.59359,-54.27349
2019-02-27 14:40:00+00:00,274.0,284.0,7.66,9.12,,47.59359,-54.27349
2019-02-27 14:50:00+00:00,288.0,282.0,10.29,12.43,,47.59359,-54.27349
2019-02-27 15:00:00+00:00,275.0,276.0,11.42,13.56,,47.59359,-54.27349
2019-02-27 15:10:00+00:00,284.0,288.0,13.26,16.79,,47.59359,-54.27349
2019-02-27 15:20:00+00:00,285.0,279.0,13.05,14.94,,47.59359,-54.27349
2019-02-27 15:30:00+00:00,286.0,283.0,15.95,18.32,,47.59359,-54.27349
2019-02-27 15:40:00+00:00,282.0,281.0,14.18,16.11,,47.59359,-54.27349
2019-02-27 15:50:00+00:00,289.0,292.0,13.13,15.37,,47.59359,-54.27349
2019-02-27 16:00:00+00:00,280.0,283.0,16.18,19.32,,47.59359,-54.27349
2019-02-27 16:10:00+00:00,281.0,278.0,16.6,19.73,,47.59359,-54.27349
2019-02-27 16:20:00+00:00,281.0,286.0,12.96,15.56,,47.59359,-54.27349
2019-02-27 16:30:00+00:00,281.0,279.0,14.37,17.32,,47.59359,-54.27349
2019-02-27 16:40:00+00:00,293.0,289.0,16.78,20.83,,47.59359,-54.27349
2019-02-27 16:50:00+00:00,296.0,288.0,15.42,18.8,,47.59359,-54.27349
2019-02-27 17:00:00+00:00,286.0,286.0,17.75,20.21,,47.59359,-54.27349
2019-02-27 17:10:00+00:00,290.0,289.0,16.1,20.74,,47.59359,-54.27349
2019-02-27 17:20:00+00:00,285.0,292.0,17.97,20.51,,47.59359,-54.27349
2019-02-27 17:30:00+00:00,291.0,295.0,16.69,19.56,,47.59359,-54.27349
2019-02-27 17:40:00+00:00,292.0,296.0,14.66,18.59,,47.59359,-54.27349
2019-02-27 17:50:00+00:00,295.0,303.0,17.2,21.86,,47.59359,-54.27349
2019-02-27 18:00:00+00:00,286.0,286.0,17.13,21.64,,47.59359,-54.27349
2019-02-27 18:10:00+00:00,292.0,286.0,16.77,20.96,,47.59359,-54.27349
2019-02-27 18:20:00+00:00,292.0,298.0,18.69,21.4,,47.59359,-54.27349
2019-02-27 18:30:00+00:00,284.0,282.0,17.35,19.8,,47.59359,-54.27349
2019-02-27 18:40:00+00:00,281.0,282.0,16.89,19.61,,47.59359,-54.27349
2019-02-27 18:50:00+00:00,288.0,291.0,16.9,20.04,,47.59359,-54.27349
2019-02-27 19:00:00+00:00,285.0,282.0,15.34,20.77,,47.59359,-54.27349
2019-02-27 19:10:00+00:00,287.0,293.0,17.57,20.09,,47.59359,-54.27349
2019-02-27 19:20:00+00:00,287.0,289.0,18.66,22.31,,47.59359,-54.27349
2019-02-27 19:30:00+00:00,288.0,296.0,15.56,17.93,,47.59359,-54.27349
2019-02-27 19:40:00+00:00,288.0,296.0,15.76,19.09,,47.59359,-54.27349
2019-02-27 19:50:00+00:00,291.0,301.0,16.79,20.2,,47.59359,-54.27349
2019-02-27 20:00:00+00:00,296.0,308.0,17.14,20.52,,47.59359,-54.27349
2019-02-27 20:10:00+00:00,289.0,288.0,18.38,21.57,,47.59359,-54.27349
2019-02-27 20:20:00+00:00,294.0,291.0,13.8,17.06,,47.59359,-54.27349
2019-02-27 20:30:00+00:00,293.0,294.0,16.3,19.07,,47.59359,-54.27349
2019-02-27 20:40:00+00:00,302.0,300.0,15.67,19.32,,47.59359,-54.27349
2019-02-27 20:50:00+00:00,296.0,297.0,16.01,19.59,,47.59359,-54.27349
2019-02-27 21:00:00+00:00,295.0,299.0,17.07,19.83,,47.59359,-54.27349
2019-02-27 21:10:00+00:00,298.0,296.0,17.11,20.01,,47.59359,-54.27349
2019-02-27 21:20:00+00:00,293.0,292.0,17.41,20.49,,47.59359,-54.27349
2019-02-27 21:30:00+00:00,294.0,299.0,17.39,19.7,,47.59359,-54.27349
2019-02-27 21:40:00+00:00,294.0,296.0,16.28,20.55,,47.59359,-54.27349
2019-02-27 21:50:00+00:00,291.0,291.0,14.99,17.83,,47.59359,-54.27349
2019-02-27 22:00:00+00:00,296.0,300.0,13.63,16.36,,47.59359,-54.27349
2019-02-27 22:10:00+00:00,291.0,289.0,15.99,18.62,,47.59359,-54.27349
2019-02-27 22:20:00+00:00,290.0,293.0,14.38,17.82,,47.59359,-54.27349
2019-02-27 22:30:00+00:00,293.0,283.0,12.86,16.09,,47.59359,-54.27349
2019-02-27 22:40:00+00:00,302.0,292.0,12.35,17.13,,47.59359,-54.27349
2019-02-27 22:50:00+00:00,306.0,298.0,13.3,17.99,,47.59359,-54.27349
2019-02-27 23:00:00+00:00,300.0,303.0,16.0,18.62,,47.59359,-54.27349
2019-02-27 23:10:00+00:00,292.0,295.0,14.23,18.79,,47.59359,-54.27349
2019-02-27 23:20:00+00:00,299.0,294.0,15.13,18.1,,47.59359,-54.27349
2019-02-27 23:30:00+00:00,296.0,297.0,16.12,18.03,,47.59359,-54.27349
2019-02-27 23:40:00+00:00,299.0,300.0,15.9,19.47,,47.59359,-54.27349
2019-02-27 23:50:00+00:00,308.0,304.0,14.63,19.36,,47.59359,-54.27349
